Manistique, MI

10:18 AM EST on January 21, 2018 (GMT -0500)
Schoolcraft County

Weather History for KISQ - June, 2014

Change the Weather History Date:

Wednesday, June 11, 2014

  Actual Average Record
Temperature  
Mean Temperature 60 °F -  
Max Temperature 72 °F 67 °F 89 °F (2016)
Min Temperature 47 °F 48 °F 31 °F (1964)
Degree Days  
Heating Degree Days 6    
Growing Degree Days 10 (Base 50)    
Moisture  
Dew Point 51 °F    
Average Humidity 76    
Maximum Humidity 97    
Minimum Humidity 46    
Precipitation  
Precipitation 0.08 in - - ()
Sea Level Pressure  
Sea Level Pressure 29.85 in    
Wind  
Wind Speed 5 mph (ENE)    
Max Wind Speed 10 mph    
Max Gust Speed 17 mph    
Visibility 10 miles    
Events Rain    
Averages and records for this station are not official NWS values.
T = Trace of Precipitation, MM = Missing Value Source: NWS Daily Summary

Daily Weather History Graph

Daily Weather History Graph

Search for Another Location

Airport or City:

Trip Planner

Search our weather history database for the weather conditions in past years. The results will help you decide how hot, cold, wet, or windy it might be!

Date:

Astronomy

Jun. 11, 2014 Rise Set
Actual Time 5:53 AM EDT 9:35 PM EDT
Civil Twilight 5:15 AM EDT 10:13 PM EDT
Nautical Twilight 4:24 AM EDT 11:04 PM EDT
Astronomical Twilight 3:14 AM EDT 12:15 AM EDT
Moon 7:58 PM EDT (6/11) 4:49 AM EDT (6/11)
Length of Visible Light 16h 57m
Length of Day
15h 41m
Waxing Gibbous, 97% of the Moon is Illuminated
Jun 11
Waxing Gibbous
Jun 13
Full
Jun 19
Last Quarter
Jun 27
New
Jul 5
First Quarter

Hourly Weather History & Observations

Time (EDT) Temp. Dew Point Humidity Pressure Visibility Wind Dir Wind Speed Gust Speed Precip Events Conditions
12:14 AM 52.9 °F 49.3 °F 88% 29.95 in 10.0 mi North - - N/A   Clear
12:35 AM 54.5 °F 49.3 °F 83% 29.94 in 10.0 mi North - - N/A   Clear
12:54 AM 54.3 °F 48.9 °F 82% 29.94 in 10.0 mi North 3.5 mph - N/A   Clear
1:15 AM 54.0 °F 48.0 °F 80% 29.94 in 10.0 mi North - - N/A   Clear
1:35 AM 54.0 °F 48.0 °F 80% 29.93 in 10.0 mi Calm Calm - N/A   Clear
1:55 AM 53.1 °F 48.4 °F 84% 29.92 in 10.0 mi North 5.8 mph - N/A   Clear
2:15 AM 53.6 °F 48.6 °F 83% 29.92 in 10.0 mi North 5.8 mph - N/A   Clear
2:35 AM 54.9 °F 48.0 °F 78% 29.91 in 10.0 mi North - - N/A   Clear
2:55 AM 53.2 °F 48.0 °F 82% 29.91 in 10.0 mi North - - N/A   Clear
3:14 AM 53.1 °F 47.3 °F 81% 29.90 in 10.0 mi North 5.8 mph - N/A   Clear
3:35 AM 50.9 °F 46.6 °F 85% 29.90 in 10.0 mi North - - N/A   Clear
3:55 AM 50.9 °F 45.9 °F 83% 29.89 in 10.0 mi SSE 3.5 mph - N/A   Clear
4:14 AM 50.2 °F 45.1 °F 83% 29.89 in 10.0 mi North - - N/A   Clear
4:35 AM 49.6 °F 44.8 °F 83% 29.89 in 10.0 mi North - - N/A   Clear
4:55 AM 50.2 °F 44.6 °F 81% 29.88 in 10.0 mi North - - N/A   Clear
5:14 AM 48.9 °F 44.2 °F 84% 29.88 in 10.0 mi North - - N/A   Clear
5:35 AM 48.9 °F 44.2 °F 84% 29.88 in 10.0 mi North - - N/A   Clear
5:55 AM 48.7 °F 44.8 °F 86% 29.88 in 10.0 mi North - - N/A   Clear
6:15 AM 47.7 °F 44.4 °F 89% 29.89 in 10.0 mi North - - N/A   Clear
6:35 AM 48.6 °F 45.3 °F 89% 29.88 in 10.0 mi North 5.8 mph - N/A   Clear
6:54 AM 49.5 °F 46.6 °F 90% 29.88 in 10.0 mi North 4.6 mph - N/A   Scattered Clouds
7:15 AM 53.8 °F 47.5 °F 79% 29.89 in 10.0 mi North - - N/A   Clear
7:35 AM 55.0 °F 47.5 °F 76% 29.90 in 10.0 mi North - - N/A   Clear
7:54 AM 56.3 °F 48.7 °F 76% 29.90 in 10.0 mi North 5.8 mph - N/A   Clear
8:15 AM 58.3 °F 48.9 °F 71% 29.89 in 10.0 mi NNE 5.8 mph - N/A   Scattered Clouds
8:35 AM 61.7 °F 48.7 °F 62% 29.89 in 10.0 mi NE 8.1 mph - N/A   Mostly Cloudy
8:54 AM 63.0 °F 49.1 °F 61% 29.88 in 10.0 mi North - - N/A   Mostly Cloudy
9:15 AM 64.6 °F 47.1 °F 53% 29.88 in 10.0 mi North - - N/A   Mostly Cloudy
9:35 AM 63.9 °F 47.7 °F 56% 29.88 in 10.0 mi North - - N/A   Overcast
9:55 AM 65.1 °F 48.0 °F 54% 29.88 in 10.0 mi NE 4.6 mph - N/A   Overcast
10:34 AM 66.2 °F 48.6 °F 53% 29.87 in 10.0 mi ENE 4.6 mph - N/A   Overcast
10:55 AM 68.4 °F 49.5 °F 51% 29.86 in 10.0 mi NE 6.9 mph - N/A   Overcast
11:15 AM 67.8 °F 48.4 °F 50% 29.86 in 10.0 mi NNE 5.8 mph - N/A   Overcast
11:21 AM 69.4 °F 49.6 °F 49% 29.86 in 10.0 mi North 6.9 mph - N/A   Overcast
12:00 PM 71.6 °F 50.0 °F 46% 29.85 in 10.0 mi North - - N/A   Mostly Cloudy
12:18 PM 71.6 °F 51.8 °F 50% 29.85 in 10.0 mi SSE 9.2 mph - N/A   Scattered Clouds
12:30 PM 71.1 °F 51.1 °F 49% 29.84 in 10.0 mi North - - N/A   Mostly Cloudy
12:55 PM 68.2 °F 48.2 °F 49% 29.84 in 10.0 mi SSE 6.9 mph - N/A   Mostly Cloudy
1:15 PM 67.5 °F 49.1 °F 52% 29.83 in 10.0 mi North - - N/A   Overcast
1:34 PM 72.0 °F 52.2 °F 50% 29.83 in 10.0 mi ESE 8.1 mph - N/A   Mostly Cloudy
1:55 PM 71.1 °F 52.7 °F 52% 29.83 in 10.0 mi SE 6.9 mph - N/A   Scattered Clouds
2:15 PM 70.7 °F 52.0 °F 51% 29.82 in 10.0 mi SE 8.1 mph - N/A   Clear
2:34 PM 70.9 °F 52.7 °F 53% 29.82 in 10.0 mi SE 9.2 mph - N/A   Mostly Cloudy
2:55 PM 70.0 °F 53.2 °F 55% 29.81 in 10.0 mi SE 9.2 mph - N/A   Mostly Cloudy
3:15 PM 70.0 °F 54.3 °F 57% 29.81 in 10.0 mi SSE 8.1 mph - N/A   Scattered Clouds
3:34 PM 68.9 °F 54.3 °F 60% 29.81 in 10.0 mi North - - N/A   Mostly Cloudy
3:55 PM 68.0 °F 56.1 °F 66% 29.80 in 10.0 mi North - - N/A   Overcast
4:14 PM 65.7 °F 55.6 °F 70% 29.80 in 10.0 mi SE 10.4 mph 17.3 mph N/A   Light Drizzle
4:35 PM 65.3 °F 53.8 °F 66% 29.81 in 10.0 mi North - - N/A   Overcast
4:55 PM 64.2 °F 54.3 °F 70% 29.81 in 10.0 mi SE 6.9 mph - N/A Rain Light Rain
5:14 PM 62.1 °F 56.1 °F 81% 29.81 in 10.0 mi North - - N/A Rain Light Rain
5:35 PM 61.9 °F 55.8 °F 80% 29.81 in 10.0 mi North - - N/A Rain Light Rain
5:55 PM 61.2 °F 56.1 °F 83% 29.81 in 10.0 mi North - - N/A Rain Rain
6:14 PM 59.9 °F 56.5 °F 88% 29.81 in 10.0 mi ESE 6.9 mph - 0.01 in Rain Light Rain
6:35 PM 59.4 °F 57.2 °F 93% 29.81 in 10.0 mi SE 3.5 mph - 0.01 in Rain Light Rain
6:55 PM 60.1 °F 57.4 °F 91% 29.81 in 10.0 mi East 4.6 mph - 0.02 in Rain Light Rain
7:15 PM 59.9 °F 57.6 °F 92% 29.81 in 10.0 mi East 4.6 mph - 0.01 in Rain Light Rain
7:35 PM 59.9 °F 58.1 °F 94% 29.81 in 10.0 mi ENE 4.6 mph - 0.01 in   Drizzle
7:54 PM 59.9 °F 57.9 °F 93% 29.81 in 10.0 mi ENE 4.6 mph - 0.01 in Rain Rain
8:15 PM 59.7 °F 57.7 °F 93% 29.81 in 10.0 mi North - - 0.01 in Rain Light Rain
8:35 PM 59.4 °F 57.4 °F 93% 29.81 in 10.0 mi North - - 0.02 in Rain Light Rain
8:54 PM 59.2 °F 57.4 °F 94% 29.80 in 10.0 mi North - - 0.03 in Rain Light Rain
9:15 PM 59.0 °F 57.6 °F 95% 29.80 in 10.0 mi North - - 0.01 in Rain Light Rain
9:34 PM 58.8 °F 57.6 °F 96% 29.79 in 10.0 mi North 5.8 mph - 0.01 in Rain Light Rain
9:55 PM 59.0 °F 57.4 °F 94% 29.79 in 10.0 mi North 4.6 mph - 0.02 in Rain Light Rain
10:15 PM 59.0 °F 57.4 °F 94% 29.79 in 10.0 mi North - - N/A   Drizzle
10:34 PM 58.5 °F 57.4 °F 96% 29.78 in 10.0 mi North - - N/A   Overcast
10:55 PM 58.5 °F 57.6 °F 97% 29.78 in 10.0 mi North 5.8 mph - N/A   Overcast
11:14 PM 58.1 °F 57.2 °F 97% 29.77 in 10.0 mi North 4.6 mph - N/A   Mostly Cloudy
11:35 PM 58.1 °F 57.2 °F 97% 29.77 in 10.0 mi North - - N/A   Overcast
11:55 PM 58.1 °F 57.2 °F 97% 29.76 in 10.0 mi NNE 4.6 mph - N/A   Overcast